Jefferson, NC

9:08 AM EST on December 13, 2019 (GMT -0500)
Ashe County

Weather History for KGEV - October, 2019

Change the Weather History Date:

Monday, October 14, 2019

  Actual Average Record
Temperature  
Mean Temperature 56 °F -  
Max Temperature 66 °F 66 °F 81 °F (1989)
Min Temperature 46 °F 38 °F 16 °F (1988)
Degree Days  
Heating Degree Days 9    
Growing Degree Days 6 (Base 50)    
Moisture  
Dew Point 36 °F    
Average Humidity 51    
Maximum Humidity 80    
Minimum Humidity 29    
Precipitation  
Precipitation 0.00 in - - ()
Sea Level Pressure  
Sea Level Pressure 30.13 in    
Wind  
Wind Speed 6 mph ()    
Max Wind Speed 15 mph    
Max Gust Speed 21 mph    
Visibility 10.0 miles    
Events      
Averages and records for this station are not official NWS values.
T = Trace of Precipitation, MM = Missing Value Source: Averaged Metar Reports

Daily Weather History Graph

Daily Weather History Graph

Search for Another Location

Airport or City:

Astronomy

Oct. 14, 2019 Rise Set
Actual Time 7:31 AM EDT 6:51 PM EDT
Civil Twilight 7:05 AM EDT 7:17 PM EDT
Nautical Twilight 6:35 AM EDT 7:46 PM EDT
Astronomical Twilight 6:06 AM EDT 8:16 PM EDT
Moon 7:40 PM EDT (10/14) 8:02 AM EDT (10/14)
Length of Visible Light 12h 11m
Length of Day
11h 19m
Waxing Gibbous, 99% of the Moon is Illuminated
Oct 14
Waxing Gibbous
Oct 21
Last Quarter
Oct 27
New
Nov 4
First Quarter
Nov 12
Full

Hourly Weather History & Observations

Time (EDT) Temp. Dew Point Humidity Pressure Visibility Wind Dir Wind Speed Gust Speed Precip Events Conditions
12:15 AM 54.1 °F 37.4 °F 53% 30.09 in 10.0 mi Calm Calm - N/A   Clear
12:35 AM 53.2 °F 37.6 °F 55% 30.08 in 10.0 mi West 5.8 mph - N/A   Clear
12:55 AM 54.7 °F 35.6 °F 49% 30.08 in 10.0 mi West 9.2 mph - N/A   Clear
1:15 AM 54.1 °F 35.2 °F 49% 30.08 in 10.0 mi WSW 9.2 mph - N/A   Clear
1:35 AM 53.8 °F 35.4 °F 50% 30.08 in 10.0 mi West 9.2 mph - N/A   Clear
1:55 AM 53.6 °F 34.9 °F 49% 30.08 in 10.0 mi West 8.1 mph - N/A   Clear
2:15 AM 53.2 °F 35.1 °F 50% 30.09 in 10.0 mi West 10.4 mph - N/A   Clear
2:35 AM 52.3 °F 35.4 °F 53% 30.09 in 10.0 mi West 9.2 mph - N/A   Clear
2:55 AM 52.3 °F 35.1 °F 52% 30.08 in 10.0 mi WNW 11.5 mph - N/A   Clear
3:35 AM 51.8 °F 36.5 °F 56% 30.08 in 10.0 mi WNW 11.5 mph 16.1 mph N/A   Clear
3:55 AM 51.4 °F 36.7 °F 57% 30.08 in 10.0 mi WNW 8.1 mph - N/A   Clear
4:15 AM 51.4 °F 37.4 °F 59% 30.07 in 10.0 mi WNW 9.2 mph 16.1 mph N/A   Clear
4:55 AM 50.2 °F 38.7 °F 65% 30.07 in 10.0 mi WNW 11.5 mph - N/A   Clear
5:15 AM 50.0 °F 39.2 °F 66% 30.07 in 10.0 mi WSW 5.8 mph - N/A   Clear
5:35 AM 49.3 °F 39.6 °F 69% 30.08 in 10.0 mi WSW 5.8 mph - N/A   Clear
5:55 AM 48.4 °F 40.6 °F 75% 30.08 in 10.0 mi WNW 6.9 mph - N/A   Clear
6:15 AM 47.8 °F 41.4 °F 78% 30.08 in 10.0 mi WNW 6.9 mph - N/A   Clear
6:35 AM 47.8 °F 41.9 °F 80% 30.08 in 10.0 mi WNW 4.6 mph - N/A   Clear
6:55 AM 46.9 °F 40.1 °F 77% 30.09 in 10.0 mi Calm Calm - N/A   Clear
7:15 AM 47.8 °F 41.0 °F 77% 30.09 in 10.0 mi West 5.8 mph - N/A   Clear
7:35 AM 48.4 °F 40.8 °F 75% 30.09 in 10.0 mi West 12.7 mph - N/A   Clear
7:55 AM 48.9 °F 39.9 °F 71% 30.10 in 10.0 mi West 15.0 mph 18.4 mph N/A   Clear
8:15 AM 49.5 °F 39.2 °F 68% 30.11 in 10.0 mi West 15.0 mph 20.7 mph N/A   Clear
8:35 AM 50.0 °F 39.2 °F 66% 30.11 in 10.0 mi West 13.8 mph 20.7 mph N/A   Clear
8:55 AM 50.4 °F 39.6 °F 66% 30.13 in 10.0 mi West 15.0 mph - N/A   Clear
9:15 AM 50.9 °F 38.7 °F 63% 30.15 in 10.0 mi West 8.1 mph 17.3 mph N/A   Clear
9:35 AM 51.3 °F 40.5 °F 67% 30.15 in 10.0 mi West 10.4 mph - N/A   Clear
9:55 AM 51.8 °F 39.7 °F 63% 30.15 in 10.0 mi West 5.8 mph - N/A   Clear
10:15 AM 52.9 °F 38.3 °F 58% 30.15 in 10.0 mi WNW 4.6 mph - N/A   Clear
10:35 AM 54.3 °F 36.7 °F 51% 30.16 in 10.0 mi NW 4.6 mph - N/A   Clear
10:55 AM 55.4 °F 36.5 °F 49% 30.16 in 10.0 mi NW 5.8 mph - N/A   Clear
11:15 AM 56.3 °F 35.4 °F 46% 30.17 in 10.0 mi NW 8.1 mph - N/A   Clear
11:35 AM 56.5 °F 34.2 °F 43% 30.16 in 10.0 mi North 5.8 mph - N/A   Clear
11:55 AM 58.1 °F 34.5 °F 41% 30.16 in 10.0 mi NW 6.9 mph - N/A   Clear
12:35 PM 58.8 °F 32.0 °F 36% 30.15 in 10.0 mi NW 5.8 mph - N/A   Unknown
12:55 PM 59.5 °F 32.2 °F 36% 30.15 in 10.0 mi Calm Calm - N/A   Clear
1:15 PM 61.2 °F 34.9 °F 37% 30.15 in 10.0 mi Calm Calm - N/A   Clear
1:35 PM 61.3 °F 36.5 °F 40% 30.14 in 10.0 mi Calm Calm - N/A   Clear
1:55 PM 62.2 °F 36.7 °F 39% 30.14 in 10.0 mi Calm Calm - N/A   Clear
2:15 PM 64.6 °F 34.5 °F 33% 30.13 in 10.0 mi West 10.4 mph - N/A   Clear
2:35 PM 64.4 °F 32.9 °F 31% 30.13 in 10.0 mi West 6.9 mph - N/A   Clear
2:55 PM 64.4 °F 32.9 °F 31% 30.13 in 10.0 mi West 5.8 mph - N/A   Clear
3:15 PM 65.3 °F 34.0 °F 31% 30.12 in 10.0 mi West 5.8 mph - N/A   Clear
3:35 PM 65.1 °F 32.2 °F 29% 30.12 in 10.0 mi WSW 3.5 mph - N/A   Clear
3:55 PM 66.2 °F 32.9 °F 29% 30.13 in 10.0 mi WSW 5.8 mph - N/A   Clear
4:35 PM 66.0 °F 34.5 °F 31% 30.12 in 10.0 mi West 6.9 mph - N/A   Clear
4:55 PM 65.7 °F 33.6 °F 30% 30.13 in 10.0 mi West 8.1 mph - N/A   Clear
5:15 PM 65.3 °F 34.5 °F 32% 30.13 in 10.0 mi West 5.8 mph - N/A   Clear
5:35 PM 64.8 °F 34.0 °F 32% 30.13 in 10.0 mi West 5.8 mph - N/A   Clear
5:55 PM 64.0 °F 34.5 °F 33% 30.13 in 10.0 mi West 5.8 mph - N/A   Clear
6:15 PM 63.1 °F 34.0 °F 34% 30.14 in 10.0 mi West 8.1 mph - N/A   Clear
6:35 PM 61.5 °F 35.4 °F 38% 30.14 in 10.0 mi West 4.6 mph - N/A   Clear
6:55 PM 60.3 °F 34.9 °F 39% 30.14 in 10.0 mi West 4.6 mph - N/A   Clear
7:15 PM 59.2 °F 35.1 °F 40% 30.14 in 10.0 mi West 4.6 mph - N/A   Clear
7:35 PM 58.5 °F 35.2 °F 42% 30.15 in 10.0 mi WSW 5.8 mph - N/A   Clear
7:55 PM 55.8 °F 36.7 °F 49% 30.15 in 10.0 mi Calm Calm - N/A   Clear
8:15 PM 56.3 °F 36.0 °F 46% 30.17 in 10.0 mi Calm Calm - N/A   Clear
8:35 PM 54.7 °F 36.5 °F 50% 30.16 in 10.0 mi Calm Calm - N/A   Clear
8:55 PM 54.7 °F 35.8 °F 49% 30.17 in 10.0 mi West 3.5 mph - N/A   Clear
9:15 PM 54.1 °F 36.1 °F 51% 30.17 in 10.0 mi WSW 3.5 mph - N/A   Clear
9:35 PM 52.5 °F 36.3 °F 54% 30.17 in 10.0 mi Calm Calm - N/A   Clear
9:55 PM 55.0 °F 34.3 °F 46% 30.18 in 10.0 mi West 4.6 mph - N/A   Clear
10:15 PM 54.9 °F 34.5 °F 46% 30.19 in 10.0 mi West 3.5 mph - N/A   Clear
10:35 PM 53.6 °F 35.1 °F 50% 30.19 in 10.0 mi West 4.6 mph - N/A   Clear
10:55 PM 52.7 °F 34.9 °F 51% 30.18 in 10.0 mi West 3.5 mph - N/A   Clear
11:15 PM 48.2 °F 36.7 °F 64% 30.17 in 10.0 mi Calm Calm - N/A   Clear
11:35 PM 48.7 °F 37.6 °F 65% 30.18 in 10.0 mi Calm Calm - N/A   Clear
11:55 PM 48.6 °F 36.7 °F 64% 30.18 in 10.0 mi Calm Calm - N/A   Clear